Temp_Advection
nan nan nan nan nan nan nan nan nan nan nan nan nan nan nan nan nan nan nan nan nan nan
nan 0 -0 -0 0 0 -0 -0 0 -0 -0 0 -0 -0 0 0 -0 -0 -0 -0 0 nan
nan -0 0 -0 -0 -0 0 0 -0 0 -0 0 0 0 -0 -0 0 0 -0 -0 -0 nan
nan -0 -0 -0 0 0 0 0 0 -0 -0 -0 0 0 0 0 -0 -0 -0 0 -0 nan
nan 0 -0 -0 -0 -0 -0 0 0 0 0 -0 -0 -0 -0 -0 0 0 -0 -0 0 nan
nan 0 -0 -0 0 -0 -0 -0 -0 0 0 0 0 0 0 0 -0 -0 0 0 0 nan
nan -0 -0 -0 0 0 -0 0 0 0 0 0 0 0 0 0 0 0 0 0 0 nan
nan -0 -0 -0 0 -0 -0 0 0 0 0 0 0 0 0 1 1 0 0 0 0 nan
nan -0 -0 -0 -0 -0 -0 -0 0 0 -0 0 -0 0 0 0 0 1 0 0 0 nan
nan -0 -0 -0 -0 -0 -0 -0 -0 0 -0 -0 0 0 0 0 0 0 0 0 -0 nan
nan -0 -0 -0 -0 -0 -0 -0 -0 0 0 -0 0 0 0 0 1 0 0 0 -0 nan
nan -0 -0 -0 -0 -0 -0 0 0 -0 -0 -0 0 0 0 0 0 0 0 0 0 nan
nan 0 -0 0 0 0 -0 -0 -0 -0 -0 -0 -0 -0 0 -0 -0 0 0 0 0 nan
nan nan nan nan nan nan nan nan nan nan nan nan nan nan nan nan nan nan nan nan nan nan
Wind_Speed
15 13 14 14 14 13 13 14 15 16 17 19 21 20 21 20 16 15 16 17 19 20
15 15 15 14 13 12 13 14 16 18 19 22 21 20 17 18 16 15 16 16 17 18
17 17 13 12 12 13 13 15 17 20 23 19 19 16 18 18 16 16 17 18 18 18
21 15 13 12 13 13 15 16 18 21 22 17 17 15 18 16 18 20 19 21 23 23
17 15 14 14 13 14 15 16 20 20 22 20 18 18 20 19 18 18 18 18 19 22
15 14 16 14 12 13 18 18 22 22 21 19 18 18 16 18 19 19 22 23 24 23
15 15 18 14 15 17 20 19 22 20 17 17 18 15 15 17 21 23 24 25 24 24
16 18 17 15 18 19 21 18 22 21 15 14 14 14 21 24 25 25 27 27 27 28
16 18 18 16 16 19 20 18 21 16 15 12 13 18 23 24 26 27 27 26 26 24
18 16 17 18 19 17 14 16 15 14 13 12 14 19 23 26 25 24 24 22 21 20
19 17 19 22 20 16 13 13 13 13 12 13 15 18 22 25 26 25 23 20 17 16
18 17 20 23 22 19 16 13 13 12 14 15 17 17 20 26 29 26 26 20 17 16
15 16 19 19 19 20 18 15 14 13 11 13 16 18 19 22 27 30 26 23 17 17
15 16 15 17 18 20 20 18 17 16 15 15 16 18 19 19 23 27 26 23 21 17
Wind_Direction
334 326 320 313 305 306 311 319 317 318 318 316 308 302 296 300 283 283 287 285 280 272
332 325 313 305 307 311 320 314 314 319 314 316 312 302 289 299 290 284 285 282 279 278
338 335 320 317 321 320 317 316 324 319 318 317 314 310 307 299 288 284 283 283 281 277
337 329 321 318 315 316 313 315 320 317 325 312 306 309 315 307 304 295 283 280 279 275
330 327 317 313 313 311 311 307 308 319 317 311 318 316 317 310 305 300 298 293 283 285
322 323 326 314 316 319 328 325 334 319 327 325 327 323 315 307 303 301 292 289 286 287
323 323 325 317 312 307 324 322 326 328 328 333 333 336 329 316 310 303 293 296 291 290
327 320 319 314 303 316 319 321 322 330 333 325 336 344 339 331 323 313 306 300 297 291
338 336 341 338 324 316 320 316 324 330 337 345 353 348 347 336 328 321 315 307 306 299
356 347 344 339 335 332 327 323 325 341 342 343 344 342 345 341 336 340 333 323 317 310
356 5 354 358 358 353 335 346 345 346 351 341 338 343 350 348 350 355 348 337 337 326
360 359 359 5 2 1 1 358 353 355 345 338 344 346 356 356 356 357 355 349 336 334
355 1 4 5 6 5 9 4 360 352 340 335 339 348 350 358 358 359 356 359 335 327
7 11 6 6 11 11 18 15 9 4 1 351 346 346 351 356 358 357 357 353 353 343
Height
1530 1527 1525 1523 1520 1517 1514 1511 1508 1503 1500 1497 1494 1490 1487 1484 1482 1481 1479 1477 1475 1473
1529 1525 1522 1519 1516 1514 1510 1509 1505 1500 1496 1492 1488 1485 1483 1480 1478 1476 1475 1473 1471 1469
1526 1521 1519 1517 1513 1510 1508 1506 1501 1497 1493 1489 1485 1481 1477 1474 1473 1471 1469 1467 1465 1464
1522 1520 1518 1514 1511 1509 1506 1502 1498 1494 1489 1486 1482 1478 1473 1471 1468 1465 1464 1462 1460 1458
1522 1518 1514 1511 1509 1506 1502 1498 1495 1490 1485 1481 1477 1473 1470 1467 1464 1461 1458 1456 1454 1451
1520 1516 1512 1509 1506 1503 1498 1495 1490 1486 1481 1477 1472 1469 1466 1463 1459 1456 1454 1451 1448 1445
1517 1512 1509 1505 1503 1499 1496 1492 1488 1483 1478 1474 1470 1466 1463 1461 1457 1452 1448 1444 1440 1437
1514 1509 1505 1502 1499 1495 1492 1488 1484 1479 1476 1472 1469 1467 1462 1456 1451 1447 1442 1438 1434 1430
1510 1506 1501 1498 1495 1491 1487 1484 1480 1476 1473 1470 1468 1464 1459 1453 1447 1441 1436 1431 1428 1424
1508 1505 1500 1495 1490 1486 1483 1480 1477 1474 1471 1468 1465 1462 1456 1450 1443 1437 1431 1425 1420 1416
1508 1503 1499 1493 1489 1484 1481 1478 1474 1472 1469 1466 1463 1458 1453 1447 1440 1433 1427 1421 1416 1411
1508 1504 1499 1494 1489 1484 1480 1476 1473 1470 1468 1464 1460 1456 1451 1444 1437 1430 1424 1417 1413 1408
1508 1504 1499 1495 1490 1485 1480 1476 1472 1469 1466 1462 1458 1454 1448 1443 1436 1429 1422 1416 1412 1407
1508 1504 1500 1496 1492 1487 1481 1477 1473 1469 1464 1460 1455 1451 1446 1441 1436 1428 1421 1415 1410 1405